Weather in Zatec

Czech Republic     50°19′23″N   13°32′36″E
temp.,
°C
wind,
m/s
gust,
m/s
humid.,
%
clouds,
%
prec.,
mm/h
press.,
hPa
HPBL,
m
18 april, sun
sun1823:00+3wnw1189100 0.0 102229
02:00+3nw229091 0.0 102157
05:00+3nnw019396 0.0 102010
08:00+4wsw1191100 0.0 102098
11:00+6w1186100 0.0 1020407
14:00+8nne1277100 0.1 1019756
17:00+7nnw2284100 0.1 1019304
20:00+6ne119081 0.1 101910
19 april, mon
mon1923:00+5ene009298 0.0 102010
02:00+5sse0093100 0.0 102010
05:00+5ene0094100 0.0 101910
08:00+6ne1189100 0.0 1020183
11:00+9nne2369100 0.1 1019781
14:00+12ene3355100 0.3 10181606
17:00+12ne3455100 0.1 10171423
20:00+7e2387100 0.3 101851
20 april, tue
tue2023:00+7w1188100 0.3 101829
02:00+5nw118953 0.3 101711
05:00+4wnw119282 0.1 101711
08:00+6n1187100 0.2 101778
11:00+10ese117149 0.4 1016379
14:00+13ene235551 0.9 10161382
17:00+14ne344442 0.1 10141935
20:00+9se11617 0.1 101510
21 april, wed
wed2123:00+6wnw11697 0.0 101610
02:00+5wsw11765 0.0 101610
05:00+4sw228111 0.0 101611
08:00+7sw227461 0.0 1016157
11:00+13wnw23589 0.1 10151120
14:00+14nnw455273 1.4 10141830
17:00+13nw675725 0.3 10141420
20:00+9nnw346713 0.3 101558
22 april, thu
thu2223:00+6nw358164 0.0 101779
02:00+7nw4670100 0.0 1018435
05:00+2nw2476100 0.0 101989
08:00+4wnw4666100 0.0 1021835
11:00+7nw57495 0.0 10211547
14:00+10nnw67425 0.0 10212013
17:00+10nw684286 0.0 10212161
20:00+6nw37675 0.0 1023118